COSMOS 1275 DEB, 42183

Orbit data source: Space-Track

COSMOS 1275 DEB, 42183 is space debris in LEO originally from a launch on Thu, 04 Jun 1981 UTC launched from the Plesetsk Missile And Space Complex (PKMTR). Debris objects in space refer to the collection of defunct objects orbiting the Earth. Examples of debris include non-operational satellites, rocket bodies, and fragments generated from explosions, collisions, or faulty payload assembly.

Loading next visibility...
Identifier
42183, 1981-053SX
Orbit
LEO
Country
Flag of CISCIS
Related business
Manufacturer
Unknown
Mission
Spacecraft
Bus & Motor
Unknown
Mass
Unknown
Launch date (UTC)
1981-06-04 (44 years ago)
Launch vehicle
Unknown
Launch site
Plesetsk Missile And Space Complex (PKMTR)
Object type
Payload
Rocket body
Debris
Shape & HBR
Unknown
Radar Cross Section
Small (<0.1 m²)

Expand to show TLE details & history
Last TLE update: 2 weeks ago

TLE from 2 weeks ago
0 COSMOS 1275 DEB
1 42183U 81053SX  25250.74748451  .00001274  00000-0  10681-2 0  9991
2 42183  82.9307  63.2677 0049711 163.8404 214.5045 13.86870345575461
Epoch: 2025-09-07T17:56Z
TLE epoch observation values (Epoch: 2025-09-07T17:56:22.661Z)
Latitude
17.87315°
Longitude
169.39076°
Altitude
972.013 km
Speed
7.352 km/s
True Right ascension
04h 22m 11s
True Declination
17° 46' 33"
Sunlit
Object was in daylight at epoch
Visualization orbit readout
Latitude
Unknown
Longitude
Unknown
Altitude
Unknown
Speed
Unknown
Apparent Right ascension
Unknown
Apparent Declination
Unknown
Sunlit
N/A
Visualization observer readout
Local Sidereal Time
05:39:56
Azimuth
Unknown
Elevation
Unknown
Doppler factor
Unknown
Orbital elements
Apogee altitude
973.115 km
Perigee altitude
900.389 km
Semi-major axis
7,314.889 km
Eccentricity
0.00497
Inclination
82.9307°
RAAN
63.2677°
Arg. of periapsis
163.8404°
True anomaly
214.18346°
Mean anomaly
214.5045°
Eccentric anomaly
214.34381°
Mean motion
3.46922 °/min
Orbital period
103.77 mins
BSTAR
0.0010681
Loading maneuver chart data...
Computing Atmospheric mass density...
Loading historical data...
Loading historical data...
Loading historical data...
Loading historical data...
Loading historical data...
Loading historical data...
Loading historical data...

Documentation

Showing up to 5 results
|